| time (UTC) | temp C | wind direction | speed KPH | gust KPH | rain 1hr cm | rain 24hr cm | rain mn cm | humidity % | barometer mb |
| 20260902212627 | 15 | 139 | 9.7 | 14.5 | 0.00 | 0.00 | 0.00 | 79 | 1023.8 |
| 20260902211626 | 15 | 129 | 3.2 | 8.0 | 0.00 | 0.00 | 0.00 | 79 | 1023.7 |
| 20260902211529 | 15 | 143 | 4.8 | 11.3 | 0.00 | 0.00 | 0.00 | 79 | 1023.8 |
| 20260902210527 | 16 | 125 | 8.0 | 11.3 | 0.00 | 0.00 | 0.00 | 78 | 1023.9 |
| 20260902205527 | 16 | 144 | 9.7 | 14.5 | 0.00 | 0.00 | 0.00 | 77 | 1023.9 |
| 20260902204529 | 16 | 125 | 8.0 | 11.3 | 0.00 | 0.00 | 0.00 | 77 | 1024.0 |
| 20260902203527 | 16 | 125 | 9.7 | 12.9 | 0.00 | 0.00 | 0.00 | 76 | 1024.1 |
| 20260902202626 | 16 | 126 | 11.3 | 17.7 | 0.00 | 0.00 | 0.00 | 76 | 1024.1 |
| 20260902201628 | 16 | 127 | 8.0 | 17.7 | 0.00 | 0.00 | 0.00 | 75 | 1024.2 |
| 20260902201542 | 16 | 141 | 9.7 | 12.9 | 0.00 | 0.00 | 0.00 | 75 | 1024.2 |
| 20260902200527 | 17 | 129 | 12.9 | 19.3 | 0.00 | 0.00 | 0.00 | 74 | 1024.1 |
| 20260902195528 | 17 | 118 | 9.7 | 14.5 | 0.00 | 0.00 | 0.00 | 73 | 1024.3 |
| 20260902195426 | 17 | 123 | 3.2 | 9.7 | 0.00 | 0.00 | 0.00 | 73 | 1024.4 |
| 20260902194427 | 17 | 121 | 8.0 | 12.9 | 0.00 | 0.00 | 0.00 | 73 | 1024.3 |
| 20260902192526 | 17 | 128 | 11.3 | 17.7 | 0.00 | 0.00 | 0.00 | 72 | 1024.3 |
| 20260902191527 | 17 | 128 | 8.0 | 12.9 | 0.00 | 0.00 | 0.00 | 70 | 1024.2 |
| 20260902190527 | 17 | 135 | 8.0 | 16.1 | 0.00 | 0.00 | 0.00 | 70 | 1024.0 |
| 20260902185527 | 18 | 106 | 8.0 | 12.9 | 0.00 | 0.00 | 0.00 | 69 | 1024.2 |
| 20260902184529 | 18 | 120 | 11.3 | 19.3 | 0.00 | 0.00 | 0.00 | 69 | 1024.0 |
| 20260902183626 | 18 | 115 | 12.9 | 24.1 | 0.00 | 0.00 | 0.00 | 69 | 1024.3 |
| 20260902181726 | 18 | 121 | 9.7 | 19.3 | 0.00 | 0.00 | 0.00 | 68 | 1024.2 |
| 20260902180825 | 18 | 107 | 8.0 | 14.5 | 0.00 | 0.00 | 0.00 | 69 | 1024.3 |
| 20260902174827 | 18 | 107 | 9.7 | 19.3 | 0.00 | 0.00 | 0.00 | 67 | 1024.6 |
| 20260902174728 | 18 | 110 | 11.3 | 24.1 | 0.00 | 0.00 | 0.00 | 66 | 1024.5 |
| 20260902173728 | 18 | 114 | 14.5 | 24.1 | 0.00 | 0.00 | 0.00 | 66 | 1024.7 |
| 20260902173627 | 18 | 115 | 11.3 | 19.3 | 0.00 | 0.00 | 0.00 | 65 | 1024.7 |
| 20260902172726 | 18 | 140 | 8.0 | 16.1 | 0.00 | 0.00 | 0.00 | 64 | 1024.7 |
| 20260902172626 | 18 | 117 | 11.3 | 19.3 | 0.00 | 0.00 | 0.00 | 63 | 1024.8 |
| 20260902171628 | 18 | 118 | 12.9 | 20.9 | 0.00 | 0.00 | 0.00 | 63 | 1024.8 |
| 20260902170726 | 19 | 77 | 3.2 | 11.3 | 0.00 | 0.00 | 0.00 | 64 | 1024.9 |
| 20260902164727 | 18 | 96 | 8.0 | 12.9 | 0.00 | 0.00 | 0.00 | 64 | 1024.8 |
| 20260902164627 | 18 | 105 | 11.3 | 16.1 | 0.00 | 0.00 | 0.00 | 64 | 1024.9 |
| 20260902162629 | 18 | 129 | 9.7 | 14.5 | 0.00 | 0.00 | 0.00 | 65 | 1025.0 |
| 20260902161627 | 18 | 88 | 12.9 | 19.3 | 0.00 | 0.00 | 0.00 | 66 | 1024.8 |
| 20260902155727 | 18 | 97 | 11.3 | 19.3 | 0.00 | 0.00 | 0.00 | 65 | 1024.9 |
| 20260902154825 | 18 | 85 | 14.5 | 22.5 | 0.00 | 0.00 | 0.00 | 64 | 1024.8 |
| 20260902153828 | 18 | 102 | 14.5 | 19.3 | 0.00 | 0.00 | 0.00 | 64 | 1024.8 |
| 20260902152925 | 18 | 97 | 12.9 | 17.7 | 0.00 | 0.00 | 0.00 | 64 | 1024.7 |
| 20260902152826 | 18 | 102 | 11.3 | 22.5 | 0.00 | 0.00 | 0.00 | 65 | 1024.7 |
| 20260902151925 | 18 | 102 | 11.3 | 17.7 | 0.00 | 0.00 | 0.00 | 65 | 1024.8 |
| 20260902145927 | 18 | 76 | 11.3 | 16.1 | 0.00 | 0.00 | 0.00 | 68 | 1025.0 |
| 20260902144927 | 18 | 105 | 6.4 | 17.7 | 0.00 | 0.00 | 0.00 | 69 | 1025.1 |
| 20260902141927 | 18 | 98 | 6.4 | 12.9 | 0.00 | 0.00 | 0.00 | 69 | 1025.1 |
| 20260902140926 | 18 | 118 | 8.0 | 12.9 | 0.00 | 0.00 | 0.00 | 70 | 1025.1 |
| 20260902135925 | 17 | 107 | 9.7 | 17.7 | 0.00 | 0.00 | 0.00 | 72 | 1024.9 |
| 20260902134927 | 17 | 87 | 8.0 | 11.3 | 0.00 | 0.00 | 0.00 | 74 | 1024.8 |
| 20260902134827 | 17 | 84 | 9.7 | 12.9 | 0.00 | 0.00 | 0.00 | 73 | 1024.7 |
| 20260902133829 | 17 | 83 | 8.0 | 11.3 | 0.00 | 0.00 | 0.00 | 75 | 1024.4 |
| 20260902132828 | 16 | 69 | 4.8 | 9.7 | 0.00 | 0.00 | 0.00 | 77 | 1024.5 |
| 20260902131827 | 16 | 90 | 4.8 | 9.7 | 0.00 | 0.00 | 0.00 | 77 | 1024.4 |
| 20260902130827 | 16 | 50 | 8.0 | 12.9 | 0.00 | 0.00 | 0.00 | 78 | 1024.3 |
| 20260902130725 | 16 | 82 | 8.0 | 11.3 | 0.00 | 0.00 | 0.00 | 77 | 1024.3 |
| 20260902125727 | 16 | 67 | 3.2 | 6.4 | 0.00 | 0.00 | 0.00 | 77 | 1024.5 |
| 20260902124728 | 16 | 85 | 6.4 | 9.7 | 0.00 | 0.00 | 0.00 | 75 | 1024.7 |
| 20260902123727 | 16 | 135 | 0.0 | 4.8 | 0.00 | 0.00 | 0.00 | 76 | 1024.7 |
| 20260902122727 | 16 | 30 | 3.2 | 4.8 | 0.00 | 0.00 | 0.00 | 78 | 1024.7 |
| 20260902121827 | 16 | 45 | 3.2 | 4.8 | 0.00 | 0.00 | 0.00 | 78 | 1024.6 |
| 20260902121728 | 16 | 36 | 4.8 | 6.4 | 0.00 | 0.00 | 0.00 | 77 | 1024.5 |
| 20260902120728 | 15 | 28 | 0.0 | 3.2 | 0.00 | 0.00 | 0.00 | 78 | 1024.6 |
| 20260902114826 | 15 | 353 | 3.2 | 6.4 | 0.00 | 0.00 | 0.00 | 80 | 1024.5 |
| 20260902113925 | 15 | 22 | 6.4 | 8.0 | 0.00 | 0.00 | 0.00 | 81 | 1024.5 |
| 20260902112928 | 15 | 72 | 4.8 | 4.8 | 0.00 | 0.00 | 0.00 | 82 | 1024.6 |
| 20260902112026 | 15 | 66 | 8.0 | 8.0 | 0.00 | 0.00 | 0.00 | 82 | 1024.7 |
| 20260902111125 | 14 | 37 | 3.2 | 6.4 | 0.00 | 0.00 | 0.00 | 82 | 1024.7 |
| 20260902110128 | 14 | 45 | 0.0 | 1.6 | 0.00 | 0.00 | 0.00 | 84 | 1024.9 |
| 20260902105126 | 13 | 45 | 0.0 | 0.0 | 0.00 | 0.00 | 0.00 | 84 | 1024.7 |
| 20260902105028 | 13 | 45 | 0.0 | 1.6 | 0.00 | 0.00 | 0.00 | 84 | 1024.6 |
| 20260902104127 | 13 | 90 | 0.0 | 0.0 | 0.00 | 0.00 | 0.00 | 83 | 1024.7 |
| 20260902103128 | 13 | 67 | 0.0 | 0.0 | 0.00 | 0.00 | 0.00 | 85 | 1024.7 |
| 20260902102126 | 13 | 45 | 1.6 | 1.6 | 0.00 | 0.00 | 0.00 | 85 | 1024.6 |
| 20260902101129 | 13 | 90 | 0.0 | 0.0 | 0.00 | 0.00 | 0.00 | 85 | 1024.5 |
| 20260902100226 | 13 | 90 | 0.0 | 0.0 | 0.00 | 0.00 | 0.00 | 86 | 1024.4 |
| 20260902095228 | 13 | 90 | 0.0 | 0.0 | 0.00 | 0.00 | 0.00 | 86 | 1024.4 |
| 20260902094326 | 13 | 90 | 0.0 | 1.6 | 0.00 | 0.00 | 0.00 | 85 | 1024.2 |
| 20260902093326 | 13 | 90 | 0.0 | 0.0 | 0.00 | 0.00 | 0.00 | 85 | 1024.3 |
| 20260902092326 | 13 | 90 | 0.0 | 0.0 | 0.00 | 0.00 | 0.00 | 83 | 1024.2 |
| 20260902092226 | 13 | 90 | 0.0 | 0.0 | 0.00 | 0.00 | 0.00 | 83 | 1024.2 |
| 20260902091226 | 13 | 90 | 0.0 | 0.0 | 0.00 | 0.00 | 0.00 | 82 | 1024.3 |
| 20260902090226 | 13 | 90 | 0.0 | 1.6 | 0.00 | 0.00 | 0.00 | 82 | 1024.3 |
| 20260902084226 | 13 | 90 | 0.0 | 1.6 | 0.00 | 0.00 | 0.00 | 79 | 1024.0 |
| 20260902084126 | 13 | 90 | 0.0 | 1.6 | 0.00 | 0.00 | 0.00 | 80 | 1024.0 |
| 20260902083126 | 13 | 90 | 0.0 | 1.6 | 0.00 | 0.00 | 0.00 | 79 | 1024.0 |
| 20260902082226 | 14 | 90 | 0.0 | 0.0 | 0.00 | 0.00 | 0.00 | 78 | 1024.0 |
| 20260902081225 | 14 | 90 | 0.0 | 0.0 | 0.00 | 0.00 | 0.00 | 78 | 1024.0 |
| 20260902081127 | 14 | 90 | 0.0 | 0.0 | 0.00 | 0.00 | 0.00 | 78 | 1024.0 |
| 20260902075025 | 15 | 90 | 3.2 | 3.2 | 0.00 | 0.00 | 0.00 | 77 | 1023.9 |
| 20260902074026 | 15 | 102 | 8.0 | 9.7 | 0.00 | 0.00 | 0.00 | 77 | 1023.5 |
| 20260902073027 | 15 | 67 | 3.2 | 4.8 | 0.00 | 0.00 | 0.00 | 76 | 1023.5 |
| 20260902072026 | 15 | 135 | 0.0 | 0.0 | 0.00 | 0.00 | 0.00 | 75 | 1023.7 |
| 20260902071027 | 15 | 135 | 1.6 | 3.2 | 0.00 | 0.00 | 0.00 | 75 | 1023.5 |
| 20260902064028 | 15 | 135 | 4.8 | 4.8 | 0.00 | 0.00 | 0.00 | 72 | 1023.5 |
| 20260902063126 | 15 | 90 | 1.6 | 3.2 | 0.00 | 0.00 | 0.00 | 72 | 1023.4 |
| 20260902062125 | 15 | 135 | 6.4 | 9.7 | 0.00 | 0.00 | 0.00 | 70 | 1023.4 |
| 20260902061225 | 15 | 135 | 8.0 | 9.7 | 0.00 | 0.00 | 0.00 | 70 | 1023.3 |
| 20260902060228 | 16 | 135 | 1.6 | 3.2 | 0.00 | 0.00 | 0.00 | 68 | 1023.3 |
| 20260902055226 | 16 | 135 | 3.2 | 4.8 | 0.00 | 0.00 | 0.00 | 68 | 1023.4 |
| 20260902054227 | 16 | 90 | 0.0 | 1.6 | 0.00 | 0.00 | 0.00 | 66 | 1023.2 |
| 20260902053325 | 16 | 135 | 3.2 | 4.8 | 0.00 | 0.00 | 0.00 | 66 | 1023.0 |
| 20260902051426 | 16 | 135 | 4.8 | 6.4 | 0.00 | 0.00 | 0.00 | 65 | 1023.1 |
| 20260902050445 | 16 | 136 | 4.8 | 4.8 | 0.00 | 0.00 | 0.00 | 65 | 1022.9 |
| 20260902045427 | 16 | 135 | 4.8 | 6.4 | 0.00 | 0.00 | 0.00 | 65 | 1022.9 |
| 20260902044427 | 15 | 157 | 3.2 | 3.2 | 0.00 | 0.00 | 0.00 | 65 | 1022.7 |
| 20260902043426 | 15 | 135 | 4.8 | 8.0 | 0.00 | 0.00 | 0.00 | 68 | 1022.5 |
| 20260902042425 | 14 | 135 | 4.8 | 6.4 | 0.00 | 0.00 | 0.00 | 74 | 1022.7 |
| 20260902041427 | 13 | 180 | 4.8 | 4.8 | 0.00 | 0.00 | 0.00 | 83 | 1022.7 |
| 20260902040427 | 13 | 180 | 3.2 | 3.2 | 0.00 | 0.00 | 0.00 | 83 | 1022.6 |
| 20260902035435 | 14 | 90 | 0.0 | 1.6 | 0.00 | 0.00 | 0.00 | 79 | 1022.6 |
| 20260902034434 | 15 | 90 | 6.4 | 8.0 | 0.00 | 0.00 | 0.00 | 74 | 1022.5 |
| 20260902032433 | 15 | 225 | 1.6 | 3.2 | 0.00 | 0.00 | 0.00 | 73 | 1022.0 |
| 20260902031433 | 14 | 225 | 0.0 | 0.0 | 0.00 | 0.00 | 0.00 | 74 | 1022.0 |
| 20260902025433 | 15 | 225 | 3.2 | 3.2 | 0.00 | 0.00 | 0.00 | 75 | 1022.0 |
| 20260902024435 | 14 | 225 | 4.8 | 6.4 | 0.00 | 0.00 | 0.00 | 77 | 1022.0 |
| 20260902023534 | 14 | 247 | 3.2 | 4.8 | 0.00 | 0.00 | 0.00 | 77 | 1021.9 |
| 20260902022632 | 14 | 247 | 1.6 | 1.6 | 0.00 | 0.00 | 0.00 | 78 | 1021.8 |
| 20260902022533 | 14 | 247 | 1.6 | 3.2 | 0.00 | 0.00 | 0.00 | 78 | 1021.8 |
| 20260902021538 | 14 | 247 | 1.6 | 1.6 | 0.00 | 0.00 | 0.00 | 78 | 1021.8 |
| 20260902020534 | 15 | 90 | 0.0 | 1.6 | 0.00 | 0.00 | 0.00 | 77 | 1021.6 |
| 20260902015534 | 14 | 90 | 0.0 | 1.6 | 0.00 | 0.00 | 0.00 | 81 | 1021.8 |
| 20260902015433 | 14 | 90 | 0.0 | 0.0 | 0.00 | 0.00 | 0.00 | 82 | 1021.7 |
| 20260902014436 | 15 | 90 | 1.6 | 1.6 | 0.00 | 0.00 | 0.00 | 80 | 1021.5 |
| 20260902013433 | 15 | 90 | 0.0 | 0.0 | 0.00 | 0.00 | 0.00 | 78 | 1021.6 |
| 20260902013334 | 15 | 90 | 1.6 | 3.2 | 0.00 | 0.00 | 0.00 | 77 | 1021.6 |
| 20260902011432 | 16 | 90 | 0.0 | 0.0 | 0.00 | 0.00 | 0.00 | 72 | 1021.6 |
| 20260902011333 | 16 | 90 | 0.0 | 0.0 | 0.00 | 0.00 | 0.00 | 71 | 1021.6 |
| 20260902010335 | 16 | 90 | 0.0 | 1.6 | 0.00 | 0.00 | 0.00 | 68 | 1021.6 |
| 20260902005334 | 17 | 90 | 4.8 | 6.4 | 0.00 | 0.00 | 0.00 | 65 | 1021.5 |
| 20260902004335 | 17 | 180 | 4.8 | 8.0 | 0.00 | 0.00 | 0.00 | 65 | 1021.5 |
| 20260902003432 | 17 | 202 | 6.4 | 8.0 | 0.00 | 0.00 | 0.00 | 64 | 1021.4 |
| 20260902002434 | 17 | 180 | 3.2 | 6.4 | 0.00 | 0.00 | 0.00 | 65 | 1021.3 |
| 20260902001434 | 17 | 180 | 4.8 | 6.4 | 0.00 | 0.00 | 0.00 | 64 | 1021.5 |
| 20260902000337 | 17 | 172 | 4.8 | 6.4 | 0.00 | 0.00 | 0.00 | 64 | 1021.4 |
| 20260901235334 | 17 | 135 | 3.2 | 4.8 | 0.00 | 0.00 | 0.00 | 64 | 1021.5 |
| 20260901235234 | 17 | 149 | 3.2 | 4.8 | 0.00 | 0.00 | 0.00 | 64 | 1021.4 |
| 20260901234332 | 17 | 173 | 4.8 | 4.8 | 0.00 | 0.00 | 0.00 | 64 | 1021.4 |
| 20260901233335 | 17 | 180 | 3.2 | 6.4 | 0.00 | 0.00 | 0.00 | 63 | 1021.2 |
| 20260901233232 | 17 | 185 | 6.4 | 8.0 | 0.00 | 0.00 | 0.00 | 62 | 1021.2 |
| 20260901232233 | 17 | 180 | 0.0 | 1.6 | 0.00 | 0.00 | 0.00 | 62 | 1021.1 |
| 20260901230335 | 17 | 150 | 3.2 | 6.4 | 0.00 | 0.00 | 0.00 | 62 | 1020.9 |
| 20260901225334 | 18 | 171 | 8.0 | 11.3 | 0.00 | 0.00 | 0.00 | 61 | 1020.7 |
| 20260901224335 | 18 | 161 | 4.8 | 6.4 | 0.00 | 0.00 | 0.00 | 60 | 1020.8 |
| 20260901223335 | 18 | 112 | 3.2 | 4.8 | 0.00 | 0.00 | 0.00 | 58 | 1020.7 |
| 20260901221434 | 19 | 204 | 4.8 | 11.3 | 0.00 | 0.00 | 0.00 | 57 | 1020.5 |
| 20260901220532 | 20 | 180 | 6.4 | 9.7 | 0.00 | 0.00 | 0.00 | 55 | 1020.5 |
| 20260901215533 | 20 | 154 | 1.6 | 6.4 | 0.00 | 0.00 | 0.00 | 56 | 1020.3 |
| 20260901214536 | 20 | 167 | 6.4 | 9.7 | 0.00 | 0.00 | 0.00 | 55 | 1020.2 |
| 20260901214432 | 20 | 164 | 9.7 | 16.1 | 0.00 | 0.00 | 0.00 | 55 | 1020.2 |
| 20260901214336 | 20 | 181 | 4.8 | 9.7 | 0.00 | 0.00 | 0.00 | 56 | 1020.1 |
| 20260901213433 | 20 | 156 | 4.8 | 8.0 | 0.00 | 0.00 | 0.00 | 55 | 1020.2 |